Location: Gro�wechsungen
(51.4926°N, 10.6901°E)
Time: 14:26:38
(UTC+00:00)

Cosmos 2082 Rocket - Pass Details

Date: 24 January 2021
Orbit: 832 x 854 km, 71.0° (Epoch: 04 March)

Event Time Altitude Azimuth Distance (km) Brightness Sun altitude
Rises 20:18:24 0° 321° (NW) 3,436 6.1 -40.6°
Reaches altitude 10° 20:21:24 10° 306° (NW) 2,494 5.3 -41.0°
Enters shadow 20:24:27 20° 275° (W) 1,875 4.4 -41.4°
